Retour au catalogue

STARLINK-34332

ActifCommunicationsVLEO
NORAD 64213·PAYLOAD·🇺🇸 United States

Lancé May 31, 2025 depuis Vandenberg Space Force Base

Loading…

Prochains Passages (prochaines 24 heures)

TLE

FraisSource: CelesTrak SupGP

Époque: Sep 15, 2026, 02:52 UTC

1 64213C 25117L   26258.11993056 -.00045212  00000+0 -13357-2 0  2583
2 64213  53.1579 236.5728 0001386  91.7672 234.4437 15.34414701    19

Suivez STARLINK-34332 en temps réel avec AllMySat

Download on the App Store